Weather Roundup
Issued by NWS

Home | Current Version | Previous Version | Graphics & Text | Print | Product List | Glossary Off
Versions: 1 2 3 4 5 6 7 8 9 10 11 12 13 14 15 16 17 18 19 20 21 22 23 24 25 26 27 28 29 30 31 32 33 34 35 36 37 38 39 40 41 42 43 44 45 46 47 48 49 50

914
NZUS93 KARX 201159
HRRWXR

CURRENT HOURLY OBSERVATIONS ACROSS
MUCH OF THE UPPER MISSISSIPPI VALLEY
NATIONAL WEATHER SERVICE LA CROSSE WI
600 AM CST TUE FEB 20 2018


...SOUTHEAST MINNESOTA...


CITY           SKY/WX    TMP DP  RH WIND       PRES   REMARKS
ROCHESTER      FRZ RAIN  25  25 100 NW9       29.77F WCI  15
ROCHESTER/MAYO CLOUDY    24  24 100 NW6       29.79F WCI  17
WINONA         MIX PCPN  30  28  93 CALM      29.81S
AUSTIN         CLOUDY    25  21  86 NW5       29.79S WCI  19
ALBERT LEA     CLOUDY    21  19  93 CALM      29.80F
DODGE CENTER   LGT SNOW  21  19  93 NW5       29.78F WCI  15
PRESTON        CLOUDY    29  28  95 CALM      29.77F FOG
OWATONNA       LGT SNOW  19  18  93 CALM      29.80F
FARIBAULT      CLOUDY    19  18  93 CALM      29.83F
$$

...ELSEWHERE IN MINNESOTA...


CITY           SKY/WX    TMP DP  RH WIND       PRES   REMARKS
MINNEAPOLIS    FRZ DRZL  20  18  92 N7        29.86S WCI  11
INTNL FALLS    LGT SNOW   4   0  83 N7        30.00S VSB 3/4 WCI  -8
DULUTH         LGT SNOW   9   5  84 N12       29.85F VSB 3/4 WCI  -6
RED WING       LGT SNOW  23  18  80 NW3       29.82F
REDWOOD FALLS  LGT SNOW  13  11  92 NW8       29.91R FOG     WCI   2
MANKATO        FLURRIES  18  16  92 N10       29.85S WCI   6
WORTHINGTON    FLURRIES  10   7  87 N14       29.87R WCI  -6
FAIRMONT       CLOUDY    16  14  92 N13       29.86S WCI   2
$$

...SOUTHWEST WISCONSIN...


CITY           SKY/WX    TMP DP  RH WIND       PRES   REMARKS
LA CROSSE      CLOUDY    32  30  92 N6        29.80S WCI  26
PRAIRIE DU CHI CLOUDY    34  33  96 W8        29.80R WCI  27
BOSCOBEL       CLOUDY    34  32  92 NW3       29.78S
LONE ROCK      LGT RAIN  33  33 100 SE9       29.78F FOG     WCI  25
PLATTEVILLE    CLOUDY    34  34 100 E10       29.76F WCI  26
FORT MC COY    FLURRIES  30  30  99 W3        29.81R
CAMP DOUGLAS   MIX PCPN  32  31  99 CALM      29.75R
MAUSTON-NEW LI LGT RAIN  32  31  97 SE3       29.76F
VIROQUA        CLOUDY    32  32 100 NW5       29.78R WCI  27
WIS DELLS      MIX PCPN  31  31  99 E7        29.78F WCI  24
$$

...ELSEWHERE IN WISCONSIN...


CITY           SKY/WX    TMP DP  RH WIND       PRES   REMARKS
MILWAUKEE      LGT RAIN  42  41  96 CALM      29.79R FOG
MADISON        LGT RAIN  32  32 100 E3        29.83R FOG
GREEN BAY      FRZ RAIN  31  29  92 N9        29.85R FOG     WCI  23
EAU CLAIRE     NOT AVBL
BLACK RVR FLS  CLOUDY    30  30 100 CALM      29.79S
MEDFORD        MIX PCPN  25  24  93 SE5       29.74F WCI  20
WAUSAU         FRZ RAIN  28  27  96 E10       29.72F WCI  19
WIS RAPIDS     FRZ RAIN  30  27  88 SE8       29.75F WCI  22
MARSHFIELD     FRZ RAIN  28  28 100 S5        29.76R WCI  23
RICE LAKE      LGT SNOW  19  18  93 N6        29.82F WCI  11
$$

...NORTHEAST IOWA...


CITY           SKY/WX    TMP DP  RH WIND       PRES   REMARKS
WATERLOO       FRZ RAIN  31  30  96 W3        29.81R FOG
DUBUQUE        MOCLDY    33  31  92 SE8       29.75F WCI  26
DECORAH        CLOUDY    32  32 100 NW3       29.78S
MASON CITY     CLOUDY    24  22  91 NW9       29.83F WCI  14
CHARLES CITY   LGT RAIN  30  30 100 NW7       29.79F WCI  23
OELWEIN        CLOUDY    32  32 100 W10       29.82R WCI  24
$$

...ELSEWHERE IN IOWA...


CITY           SKY/WX    TMP DP  RH WIND       PRES   REMARKS
DES MOINES     FRZ DRZL  29  26  89 NW9       29.85R WCI  20
IOWA CITY      CLOUDY    35  50 100 W6        29.82R WCI  30
FORT DODGE     CLOUDY    21  19  92 NW8       29.86R WCI  11
MARSHALLTOWN   CLOUDY    31  31 100 W7        29.82S WCI  24
CEDAR RAPIDS   CLOUDY    33  32  96 W7        29.82R WCI  27
$$

...NORTHERN ILLINOIS...


CITY           SKY/WX    TMP DP  RH WIND       PRES   REMARKS
CHICAGO-OHARE  LGT RAIN  59  56  89 SW12      29.83R FOG
CHICAGO-MIDWAY RAIN      58  58 100 W6        29.84F FOG
MOLINE         CLOUDY    39  37  92 NW6       29.81F WCI  35
ROCKFORD       LGT RAIN  42  42 100 S6        29.81R VSB 1
PEORIA         CLOUDY    59  58  96 S8        29.83R
$$

NOTE: "FAIR" INDICATES FEW OR NO CLOUDS BELOW 12,000 FEET WITH NO
SIGNIFICANT WEATHER AND/OR OBSTRUCTIONS TO VISIBILITY. WIND
SPEEDS ARE IN MILES-PER-HOUR.




USA.gov is the U.S. government's official web portal to all federal, state and local government web resources and services.